Location: Lucerne Valley
(34.4439°N, 116.9669°E)
Time: 17:06:08
(UTC-07:00)

ISS - Pass Details

Date: 10 October 2017
Orbit: 401 x 408 km, 51.6° (Epoch: 19 October)

Event Time Altitude Azimuth Distance (km) Brightness Sun altitude
Rises 04:23:21 0° 328° (NNW) 2,324 0.6 -21.2°
Reaches altitude 10° 04:26:18 10° 357° (N) 1,463 -0.9 -21.8°
Enters shadow 04:26:25 10° 359° (N) 1,437 -1.0 -21.8°
